Welcome to the New NWS' Forecast!
Most changes are behind the scenes, but click here for differences you might notice.
Latest weather observations around

Bakersfield, Meadows Field Airport (KBFL)

Using English Units (Switch to International System of Units)
Date/ Time (PDT) Wind (mph) Vis. (mi) Weather Sky Cond. Temp (°F) Rel. Humidity Wind Chill (°F) Heat Index (°F) Pressure Precip. (in)
Air Dwpt 6 hour Altimeter (inHg) Sea level (inHg) 1 hr 3 hr 6 hr
Max Min
Aug 16 02:54 W 6 10 Clear CLR 76 55     48%   75 29.91 29.89      
Aug 16 01:54 NW 6 10 Clear CLR 78 54     43%   78 29.9 29.88      
Aug 16 00:54 N 9 10 Clear CLR 83 53     36%   82 29.9 29.88      
Aug 15 23:54 N 8 10 Clear CLR 84 52     33%   82 29.89 29.87      
Aug 15 22:54 N 6 10 Clear CLR 85 51     31%   83 29.88 29.85      
Aug 15 21:54 NNE 7 10 Clear CLR 87 51     29%   85 29.86 29.84      
Aug 15 20:54 Calm 10 Clear CLR 86 51     30%   84 29.84 29.82      
Aug 15 19:54 NW 7 10 Clear CLR 91 50     25%   88 29.82 29.8      
Aug 15 18:54 N 10 10 Clear CLR 96 42     16%   92 29.81 29.79      
Aug 15 17:54 NNW 10 10 Clear CLR 97 46     18%   93 29.8 29.78      
Aug 15 16:54 NW 10 10 Clear CLR 97 44     16%   93 29.81 29.79      
Aug 15 15:54 W 11 10 Clear CLR 96 43     16%   92 29.82 29.8      
Aug 15 14:54 WNW 14 10 Clear CLR 95 47     19%   91 29.84 29.81      
Aug 15 13:54 WNW 10 10 Clear CLR 93 49     22%   90 29.86 29.84      
Aug 15 12:54 W 8 10 Clear CLR 91 48     23%   88 29.88 29.86      
Aug 15 11:54 WNW 7 10 Clear CLR 88 52     29%   86 29.9 29.88      
Aug 15 10:54 W 3 10 Clear CLR 83 52     34%   82 29.91 29.89      
Aug 15 09:54 3 10 Clear CLR 80 54     41%   80 29.92 29.89      
Aug 15 08:54 Calm 10 Clear CLR 76 54     47%   75 29.92 29.9      
Aug 15 07:54 Calm 10 Clear CLR 73 53     50%   72 29.91 29.89      
Aug 15 06:54 Calm 9 Clear CLR 71 52     51%   70 29.89 29.87      
Aug 15 05:54 Calm 10 Clear CLR 72 53     51%   71 29.87 29.85      
Aug 15 04:54 NNW 6 10 Clear CLR 70 51     51%     29.86 29.84      
Aug 15 03:54 NNW 5 10 Clear CLR 72 52     49%   71 29.85 29.83      
Aug 15 02:54 NNW 6 10 Clear CLR 74 52     46%   73 29.85 29.83      
Aug 15 01:54 NW 6 10 Clear CLR 75 53     46%   74 29.85 29.82      
Aug 15 00:54 NW 7 10 Clear CLR 79 49     35%   78 29.84 29.82      
Aug 14 23:54 N 7 10 Clear CLR 82 48     31%   81 29.83 29.81      
Aug 14 22:54 N 8 10 Clear CLR 84 46     27%   82 29.82 29.8      
Aug 14 21:54 N 7 10 Clear CLR 87 44     22%   84 29.81 29.78      
Aug 14 20:54 NNW 5 10 Clear CLR 86 42     21%   83 29.78 29.76      
Aug 14 19:54 N 5 10 Clear CLR 93 42     17%   89 29.77 29.75      
Aug 14 18:54 NW 9 10 Clear CLR 96 47     19%   92 29.76 29.74      
Aug 14 17:54 NW 13 10 Clear CLR 99 44     15%   95 29.77 29.74      
Aug 14 16:54 NNW 14 10 Clear CLR 99 43     15%   95 29.77 29.74      
Aug 14 15:54 WNW 11 10 Clear CLR 97 45     17%   93 29.78 29.75      
Aug 14 14:54 WNW 9 10 Clear CLR 98 42     15%   94 29.8 29.78      
Aug 14 13:54 W 11 10 Clear CLR 96 41     15%   92 29.82 29.8      
Aug 14 12:54 WNW 10 10 Clear CLR 93 41     16%   89 29.84 29.82      
Aug 14 11:54 WNW 7 10 Clear CLR 90 41     18%   86 29.86 29.84      
Aug 14 10:54 W 7 10 Clear CLR 88 40     19%   84 29.87 29.85      
Aug 14 09:54 Calm 10 Clear CLR 83 48     30%   81 29.88 29.85      
Aug 14 08:54 Calm 10 Clear CLR 81 50     34%   80 29.89 29.86      
Aug 14 07:54 Calm 10 Clear CLR 77 50     39%   76 29.88 29.85      
Aug 14 06:54 Calm 10 Clear CLR 75 52     45%   74 29.87 29.85      
Aug 14 05:54 Calm 10 Clear CLR 75 52     45%   74 29.86 29.84      
Aug 14 03:54 NNW 6 10 Clear CLR 75 49     40%   74 29.86 29.83      
Aug 14 02:54 NNE 3 10 Clear CLR 78 48     35%   77 29.86 29.84      
Aug 14 01:54 N 7 10 Clear CLR 78 48     35%   77 29.86 29.83      
Aug 14 00:54 NW 9 10 Clear CLR 79 50     36%   78 29.86 29.83      
Aug 13 23:54 NNW 7 10 Clear CLR 80 49     34%   79 29.85 29.83      
Aug 13 22:54 WNW 6 10 Clear CLR 83 50     32%   81 29.84 29.81      
Aug 13 21:54 WNW 6 10 Clear CLR 88 45     22%   85 29.82 29.8      
Aug 13 20:54 NNE 7 10 Clear CLR 92 42     18%   88 29.81 29.78      
Aug 13 19:54 NNE 8 10 Clear CLR 96 44     17%   92 29.8 29.78      
Aug 13 17:54 NNW 11 10 Clear CLR 100 41     13%   95 29.79 29.77      
Aug 13 16:54 NW 13 10 Clear CLR 100 41     13%   95 29.81 29.78      
Aug 13 15:54 NNW 10 10 Clear CLR 100 45     15%   96 29.83 29.8      
Aug 13 14:54 NW 9 10 Clear CLR 99 44     15%   95 29.85 29.82      
Aug 13 13:54 WNW 8 10 Clear CLR 96 46     18%   92 29.87 29.85      
Aug 13 12:54 WNW 7 10 Clear CLR 95 45     18%   91   29.87      
Aug 13 11:54 WNW 9 10 Clear CLR 92 44     19%   88 29.91 29.89      
Aug 13 10:54 WNW 8 10 Clear CLR 89 45     22%   86 29.93 29.9      
Aug 13 09:54 W 8 10 Clear CLR 86 44     23%   83 29.93 29.91      
Aug 13 08:54 Calm 10 Clear CLR 83 46     28%   81 29.93 29.91      
Aug 13 07:54 SE 3 10 Clear CLR 79 50     36%   78 29.93 29.91      
Aug 13 06:54 Calm 10 Clear CLR 76 49     39%   75 29.92 29.9      
Aug 13 04:54 Calm 10 Clear CLR 76 46     35%   75 29.9 29.87      
Aug 13 03:54 NNW 3 10 Clear CLR 76 47     36%   75 29.9 29.87      
May 13 14:54 WNW 10 10 Clear CLR 80 45     29%   79 29.91 29.89      
May 12 17:54 WNW 17 10 Clear CLR 82 38     21%   80 29.8 29.79      
May 12 12:54 WSW 6 10 Clear CLR 78 41     27%   77 29.87 29.85      
May 12 00:54 E 6 10 Clear CLR 67 43     42%     29.76 29.74      
Jun 11 23:54 N 18 10 Mostly Cloudy BKN080 61 42     50%     29.98 29.97      
Jun 11 09:54 NNW 13 10 Mostly Clear FEW039 64 43     46%     29.93 29.92      
Jun 11 07:54 NNW 15 10 Clear CLR 61 44     54%     29.91 29.9      
Jun 10 21:54 N 6 10 Clear CLR 71 46     41%   70 29.84 29.82      
Jun 10 18:54 NW 10 10 Clear CLR 77 46     33%   76 29.82 29.8      
Jun 10 15:54 W 10 10 Clear CLR 77 47     35%   76 29.85 29.84      
Jun 10 08:54 NW 8 10 Cloudy OVC048 63 43     48%     29.96 29.94      
Jun 08 21:54 NW 14 10 Clear   76 48     37%   75 29.92 29.9      
Jun 08 14:01 W 10 9 Mostly Clear FEW001 87 37     17%   84 29.94        
Jun 08 11:54 W 7 10 Clear CLR 81 46     29%   80 29.97 29.95      
Jun 08 06:54 ENE 5 10 Clear CLR 69 46     44%     29.97 29.95      
Jun 07 08:54 3 10 Clear CLR 78 45     31%   77 29.87 29.85